This is the latest recevied weather packets stored in our database for station/object W0VI. If no packets are shown the sender has not sent any weather packets the latest 10 day(s).
| Time | Temp. | Humidity | Pressure | Rain* | Wind** | Luminosity | Snow |
|---|---|---|---|---|---|---|---|
| 1787882732 | 18.33° C | 69% | 1018.3 hPa | 0 mm | - | 0 W/m² | - |
| 1787882428 | 18.89° C | 68% | 1018.1 hPa | 0 mm | - | 0 W/m² | - |
| 1787882124 | 18.89° C | 68% | 1018 hPa | 0 mm | - | 0 W/m² | - |
| 1787881823 | 18.89° C | 68% | 1017.9 hPa | 0 mm | - | 0 W/m² | - |
| 1787881518 | 18.89° C | 66% | 1017.8 hPa | 0 mm | - | 0 W/m² | - |
| 1787881215 | 19.44° C | 65% | 1017.9 hPa | 0 mm | - | 0 W/m² | - |
| 1787880910 | 20° C | 63% | 1017.9 hPa | 0 mm | - | 0 W/m² | - |
| 1787880610 | 20° C | 62% | 1017.8 hPa | 0 mm | - | 0 W/m² | - |
| 1787880308 | 20.56° C | 61% | 1017.7 hPa | 0 mm | - | 0 W/m² | - |
| 1787880003 | 20.56° C | 60% | 1017.7 hPa | 0 mm | - | 0 W/m² | - |
| 1787879698 | 21.11° C | 58% | 1017.6 hPa | 0 mm | - | 0 W/m² | - |
| 1787879393 | 21.67° C | 56% | 1017.6 hPa | 0 mm | - | 0 W/m² | - |
| 1787879089 | 22.22° C | 55% | 1017.6 hPa | 0 mm | - | 0 W/m² | - |
| 1787878784 | 22.22° C | 54% | 1017.7 hPa | 0 mm | - | 2 W/m² | - |
| 1787878483 | 22.78° C | 54% | 1017.5 hPa | 0 mm | - | 4 W/m² | - |
| 1787878180 | 22.78° C | 53% | 1017.8 hPa | 0 mm | - | 6 W/m² | - |
| 1787877875 | 23.33° C | 52% | 1017.6 hPa | 0 mm | - | 10 W/m² | - |
| 1787877570 | 23.89° C | 51% | 1017.6 hPa | 0 mm | - | 12 W/m² | - |
| 1787877266 | 24.44° C | 49% | 1017.7 hPa | 0 mm | - | 15 W/m² | - |
| 1787876961 | 25° C | 48% | 1017.5 hPa | 0 mm | - | 19 W/m² | - |
| 1787876657 | 25.56° C | 46% | 1017.6 hPa | 0 mm | - | 24 W/m² | - |
| 1787876356 | 25.56° C | 44% | 1017.5 hPa | 0 mm | - | 28 W/m² | - |
| 1787876055 | 25.56° C | 44% | 1017.5 hPa | 0 mm | - | 32 W/m² | - |
| 1787875750 | 26.11° C | 45% | 1017.6 hPa | 0 mm | - | 36 W/m² | - |
| 1787875448 | 25.56° C | 44% | 1017.6 hPa | 0 mm | - | 40 W/m² | - |
* Rain latest hour (hover to see other rain measurements)
** Current wind speed in m/s (hover to see current wind gust speed)